Regional Weather Roundup
Issued by NWS Upton, NY

Current Version | Previous Version | Text Only | Print | Product List | Glossary On
Versions: 1 2 3 4 5 6 7 8 9 10 11 12 13 14 15 16 17 18 19 20 21 22 23 24 25 26 27 28 29 30 31 32 33 34 35 36 37 38 39 40 41 42 43 44 45 46 47 48 49 50
000 ASUS41 KOKX 270604 RWROKX REGIONAL WEATHER ROUNDUP NATIONAL WEATHER SERVICE NEW YORK NY 200 AM EDT WED JUL 27 2016 NOTE: "FAIR" INDICATES FEW OR NO CLOUDS BELOW 12,000 FEET WITH NO SIGNIFICANT WEATHER AND/OR OBSTRUCTIONS TO VISIBILITY. NYZ071-072-176-178-NJZ106-104-270700- NEW YORK CITY METRO AREA CITY SKY/WX TMP DP RH WIND PRES REMARKS Central Park PTCLDY 80 60 50 VRB5 29.96R LaGuardia APRT MOCLDY 81 63 54 N7 29.92R Kennedy INTL MOCLDY 79 61 53 N7 29.94R Newark/Liberty MOCLDY 78 62 57 NE5 29.93R Bronx Bot Gard N/A 75 63 64 N5 29.93F Wall St Helipt PTCLDY 81 64 57 W3 29.94R Teterboro MOCLDY 76 61 59 N3 29.93R $$ NYZ177-179-078>081-270700- LONG ISLAND NEW YORK CITY SKY/WX TMP DP RH WIND PRES REMARKS Farmingdale PTCLDY 75 64 68 N9G22 29.93R MacArthur/ISP PTCLDY 73 65 75 NW5 29.92S Shirley PTCLDY 71 63 75 N3 29.93S Riverhead NOT AVBL Westhampton PTCLDY 68 62 81 N5 29.94R Southhampton N/A 73 66 78 NW1 29.88R Bridgehampton N/A 72 66 83 CALM 29.91S East Hampton FAIR 71 64 77 CALM 29.91S Montauk N/A 73 66 78 W3 29.92R $$ NYZ052-065-067-270700- HUDSON VALLEY CITY SKY/WX TMP DP RH WIND PRES REMARKS White Plains MOCLDY 71 62 73 NW6 29.94S Newburgh PTCLDY 66 64 94 CALM 29.97 Montgomery CLEAR 65 63 93 CALM 29.96S Poughkeepsie PTCLDY 67 63 87 CALM 29.94S Albany CLEAR 67 59 75 SW3 29.95R $$ NJZ001-105-106-008-010-013-015-019>022-104-270700- NEW JERSEY CITY SKY/WX TMP DP RH WIND PRES REMARKS Newark/Liberty MOCLDY 78 62 57 NE5 29.93R Teterboro MOCLDY 76 61 59 N3 29.93R Caldwell MOCLDY 72 64 76 CALM 29.95R Morristown PTCLDY 66 63 88 CALM 29.95S Somerville PTCLDY 69 66 90 CALM 29.93R Linden FAIR 77 61 58 CALM 29.95R Sussex PTCLDY 65 64 97 CALM 29.97S Abdover N/A 65 63 93 CALM 29.97S Trenton PTCLDY 74 65 73 NW5 29.94R Millville CLOUDY 75 72 90 CALM 29.92F Atlantic City CLOUDY 77 70 79 CALM 29.92S Wrightstown CLEAR 74 69 81 CALM 29.91S Toms River PTCLDY 72 69 90 CALM 29.94S Belmar PTCLDY 72 68 87 CALM 29.95R $$ PAZ047>061-062-071-270700- EASTERN PENNSYLVANIA CITY SKY/WX TMP DP RH WIND PRES REMARKS Philadelphia CLOUDY 81 74 79 E3 29.93S Allentown MOCLDY 70 65 84 CALM 29.96S Scranton CLEAR 67 61 81 E7 29.99S $$ CTZ002-004>006-009-010-012-RIZ004-006-007-MAZ004-011-015-270700- SOUTHERN NEW ENGLAND IN CT CITY SKY/WX TMP DP RH WIND PRES REMARKS Bradley INTL PTCLDY 72 61 68 NE3 29.92S Hartford CLEAR 78 62 57 N6 29.92S Danbury CLOUDY 65 62 90 CALM 29.96F Wtrbury/Oxford N/A 66 57 72 N5 29.96S Bridgeport PTCLDY 75 63 66 N5 29.92S Meriden CLEAR 69 64 84 CALM 29.93S New Haven CLOUDY 72 61 68 CALM 29.93S Chester FAIR 73 63 68 NW5 29.93S Groton CLOUDY 76 62 62 N7 29.90R Wilimantic NOT AVBL IN RI CITY SKY/WX TMP DP RH WIND PRES REMARKS Providence PTCLDY 76 60 57 NW3 29.91S Block Island MOCLDY 73 63 70 NW6 29.91R Westerly CLOUDY 75 61 61 N7 29.91S IN MA CITY SKY/WX TMP DP RH WIND PRES REMARKS Boston CLEAR 78 59 51 NW8 29.89S Worchester CLEAR 70 57 63 W9 29.96R Westfield CLEAR 68 63 84 NE3 29.93S Provincetown CLEAR 72 65 78 N3 29.88F Nantucket MOCLDY 74 71 91 N10 29.86S $$ ANZ330-335-338-340-345-350-353-355-270700- COASTAL MARINE OBSERVATIONS STATION/POSITION TIME SKY/WX TEMP WIND PRES VSBY WAVE AIR SEA DIR/SP/G HT/PER (UTC) (F) (DEG/KT/KT) (MB) (MI) (FT/S) NY HARB ENTRANCE 0450 78 76 10/ 6/ 6 1012.8 2/ 7 20S FIRE ISLAND 0450 78 76 330/ 4/ 6 1012.5 3/ 7 GREAT SOUTH BAY 0500 78 81 340/ 8/ 10 N/A 23 SSW MONTAUK P 0450 73 70 300/ 8/ 8 1012.8 3/ 7 15 E BARNEGAT LI 0522 77 N/A 2/ 7 HUDSON CANYON 0450 79 78 1012.7 3/ 6 KINGS POINT 0500 77 74 1013.0 EXECUTION ROCKS 0500 75 20/ 2/ 4 N/A CENTRAL LI SOUND 0500 76 74 320/ 6/ 6 N/A 0 EASTERN LI SOUND 0500 73 68 280/ 6/ 8 N/A ROBBINS REEF 0500 81 350/ 7/ 8 1012.6 $$ >>>>>>>>>>>>>>>>>>>>>>>>>>>> KEY <<<<<<<<<<<<<<<<<<<<<<<<<<< > < > SKY/WX - Sky Condition/Present Weather < > TMP - Temperature in Fahrenheit < > DP - Dew Point in Fahrenheit < > RH - Relative Humidity in Percent < > WIND - Direction (from) and Speed in MPH < > PRES - Mean Sea Level Pressure (inches of Hg) < > WCI - Wind Chill Index < > VSB - VISIBILITY IN MILES < > HX - HEAT INDEX < > TC - TEMPERATURE IN CELSIUS < > VRB - VARIABLE WIND DIRECTION < > < >>>>>>>>>>>>>>>>>>>>>>>>>>>> KEY <<<<<<<<<<<<<<<<<<<<<<<<<<<

USA.gov is the U.S. government's official web portal to all federal, state and local government web resources and services.